Flag for Canada Weather past 2 weeks in Québec, Quebec, Canada

Now
-6 °F

Clear.


Feels Like: -15 °F
Forecast: -14 / 13 °F
Wind: 3 mph from North

Location: Quebec Weather Station

Current Time: Mar 6, 2015 at 1:38:50 AM

Latest Report: Mar 6, 2015 at 1:00 AM


Visibility: 15 mi

Pressure: 30.34 "Hg

Humidity: 59%

Dew point: -17 °F

Location of QuébecLocation

Historic Weather in Québec — Graph

°F

Québec temperature yesterday

Maximum temperature yesterday: 18 °F (at 12:00 AM)
Minimum temperature yesterday: 0 °F (at 11:00 PM)
Average temperature yesterday: 8 °F

Past Weeks' High & Low Weather Summary

 TemperatureHumidityPressure
High30 °F (Mar 4, 1:54 PM)93% (Feb 23, 2:00 AM)30.65 "Hg (Feb 23, 2:00 AM)
Low-20 °F (Feb 24, 7:00 AM)36% (Mar 5, 12:00 PM)29.51 "Hg (Mar 4, 3:48 AM)
Average9 °F66%30.06 "Hg
* Reported Midnight between Feb 18 and Feb 19 — Midnight between Mar 5 and Mar 6, Québec, Weather by CustomWeather, © 2015

Note: Actual official high and low records may vary slightly from our data, if they occured in-between our weather recording intervals... More about our weather records

Advertising

Québec weather history for previous 24 hours

 ConditionsComfort  
Time TempWeatherWind HumidityBarometerVisibility
12:00 AM
Fri, Mar 6
-2 °FClear.6 mph49%30.32 "Hg15 mi
11:00 PM
Thu, Mar 5
0 °FClear.5 mph50%30.32 "Hg15 mi
10:00 PM1 °FClear.8 mph50%30.31 "Hg15 mi
9:00 PM3 °FClear.10 mph50%30.29 "Hg15 mi
8:00 PM3 °FClear.13 mph50%30.28 "Hg15 mi
7:00 PM5 °FClear.14 mph51%30.27 "Hg15 mi
6:00 PM9 °FClear.14 mph47%30.23 "Hg15 mi
5:00 PM9 °FPassing clouds.18 mph47%30.20 "Hg30 mi
4:00 PM10 °FPassing clouds.23 mph44%30.19 "Hg30 mi
3:00 PM12 °FScattered clouds.18 mph40%30.16 "Hg30 mi
2:00 PM12 °FPartly sunny.8 mph37%30.15 "Hg30 mi
1:00 PM10 °FPartly sunny.7 mph36%30.17 "Hg30 mi
12:00 PM10 °FScattered clouds.5 mph36%30.17 "Hg30 mi
11:00 AM9 °FPassing clouds.10 mph39%30.18 "Hg30 mi
10:00 AM5 °FPassing clouds.9 mph42%30.17 "Hg30 mi
9:00 AM5 °FPassing clouds.8 mph46%30.15 "Hg30 mi
8:00 AM5 °FPassing clouds.12 mph46%30.12 "Hg30 mi
7:00 AM5 °FPassing clouds.13 mph51%30.05 "Hg20 mi
6:00 AM5 °FPassing clouds.15 mph51%30.02 "Hg20 mi
5:00 AM7 °FPassing clouds.8 mph56%29.99 "Hg15 mi
4:00 AM9 °FPassing clouds.9 mph51%29.94 "Hg15 mi
3:00 AM10 °FPassing clouds.9 mph52%29.91 "Hg15 mi
2:00 AM16 °FPassing clouds.12 mph48%29.89 "Hg15 mi
1:00 AM18 °FPassing clouds.15 mph49%29.85 "Hg15 mi
Weather by CustomWeather, © 2015

See weather overviewHow to use our weather pages